Location: Geyikbay?r?
(36.8756°N, 30.4583°E)
Time: 00:00:18
(UTC+00:00)

SJ 16-02 - Pass Details

Date: 05 August 2024
Orbit: 593 x 603 km, 75.0° (Epoch: 18 September)

Event Time Altitude Azimuth Distance (km) Brightness Sun altitude
Rises 20:22:02 0° 342° (NNW) 2,862 5.9 -31.3°
Reaches altitude 10° 20:24:17 10° 342° (NNW) 1,953 4.8 -31.5°
Enters shadow 20:26:27 29° 342° (NNW) 1,119 3.2 -31.7°
